Location: Unspecified
(47.9110°N, 14.3980°E)
Time: 08:00:28
(UTC+00:00)

Cosmos 1602 - Pass Details

Date: 06 August 2020
Orbit: 513 x 535 km, 82.5° (Epoch: 26 September)

Event Time Altitude Azimuth Distance (km) Brightness Sun altitude
Exits shadow 20:55:41 53° 133° (SE) 656 3.8 -19.2°
Maximum altitude 20:56:12 60° 96° (E) 616 3.8 -19.3°
Drops below altitude 10° 21:00:05 10° 16° (NNE) 1,797 7.0 -19.6°
Sets 21:02:16 0° 13° (NNE) 2,695 8.0 -19.8°
